Simultaneous Nadir Overpasses (SNOs) Predictions

Prediction of SNOs between METOP-B and NOAA-19 Satellite Orbit:

Table of predicted SNOs for the next 14.0 days since TLE Epoch: 8/17/2024
Index Date (METOP-B) Time (METOP-B) Lat,Lon (METOP-B) SZA (METOP-B ) Date (NOAA-19) Time (NOAA-19) Lat,Lon (NOAA-19) SZA (NOAA-19 ) Distance(km) Time Diff (sec)
1 08/17/2024 22:52:25 -63.65, 139.13 88.64 08/17/2024 22:51:14 -63.65, 139.13 88.74 0.62 71
2 08/17/2024 23:42:30 61.55, -51.82 93.17 08/17/2024 23:41:41 61.55, -51.82 93.09 0.38 49
3 08/18/2024 00:32:35 -59.65, 116.89 85.23 08/18/2024 00:31:59 -59.64, 116.91 85.27 1.73 36
4 08/18/2024 01:22:25 56.65, -73.89 97.30 08/18/2024 01:22:11 56.63, -73.87 97.29 2.47 14
5 08/18/2024 02:12:25 -54.46, 94.67 80.88 08/18/2024 02:12:24 -54.45, 94.69 80.87 1.92 1
6 08/18/2024 03:02:17 51.52, -96.55 101.55 08/18/2024 03:02:39 51.54, -96.57 101.57 2.71 22
7 08/18/2024 03:51:49 -47.72, 72.46 75.36 08/18/2024 03:52:23 -47.71, 72.47 75.28 0.92 34
8 08/18/2024 04:41:47 45.07,-119.18 106.77 08/18/2024 04:42:44 45.08,-119.23 106.87 3.77 57
9 08/18/2024 05:32:25 -45.08, 48.16 73.23 08/18/2024 05:33:34 -45.04, 48.08 73.09 7.85 69
10 08/29/2024 21:14:56 70.19, -23.63 89.77 08/29/2024 21:13:44 70.19, -23.62 89.68 0.35 72
11 08/29/2024 22:05:25 -69.63, 144.54 89.73 08/29/2024 22:04:30 -69.64, 144.50 89.82 2.31 55
12 08/29/2024 22:55:45 68.45, -46.53 91.33 08/29/2024 22:55:09 68.47, -46.56 91.26 2.56 36
13 08/29/2024 23:46:04 -67.34, 122.16 87.71 08/29/2024 23:45:44 -67.34, 122.16 87.74 0.11 20
14 08/30/2024 00:36:20 65.91, -68.94 93.54 08/30/2024 00:36:19 65.90, -68.93 93.55 0.93 1
15 08/30/2024 01:26:32 -64.41, 99.87 85.17 08/30/2024 01:26:47 -64.40, 99.89 85.14 1.54 15
16 08/30/2024 02:16:51 63.10, -91.65 95.94 08/30/2024 02:17:26 63.12, -91.68 95.98 2.42 35
17 08/30/2024 03:06:46 -60.64, 77.61 81.99 08/30/2024 03:07:36 -60.63, 77.65 81.89 2.44 50



Historial Predications of SNOs between METOP-B and NOAA-19
